Terug naar catalogus

NOAA 16 DEB

ActiefPO
NORAD 42365·DEBRIS·🇺🇸 United States

Gelanceerd Sep 21, 2000 vanaf Vandenberg Space Force Base

Loading…

Volgende Passages (komende 24 uur)

TLE

VersSource: Space-Track

Epoch: Sep 14, 2026, 13:23 UTC

1 42365U 00055RH  26257.55775686  .00004038  00000-0  96766-3 0  9993
2 42365  98.9651 115.1038 0033698 208.7265 151.2075 14.53764365551699

Volg NOAA 16 DEB in realtime met AllMySat

Download on the App Store